Fergus Falls, MN

12:51 PM CST on December 06, 2019 (GMT -0600)
Fergus Falls Municipal-Mickelson

Weather History for KFFM - November, 2019

Change the Weather History Date:

Wednesday, November 13, 2019

  Actual Average Record
Temperature  
Mean Temperature 22 °F -  
Max Temperature 26 °F 34 °F 68 °F (1999)
Min Temperature 15 °F 20 °F -5 °F (1986)
Degree Days  
Heating Degree Days 44    
Moisture  
Dew Point 16 °F    
Average Humidity 80    
Maximum Humidity 93    
Minimum Humidity 68    
Precipitation  
Precipitation 0.00 in - - ()
Sea Level Pressure  
Sea Level Pressure 29.96 in    
Wind  
Wind Speed 9 mph ()    
Max Wind Speed 20 mph    
Max Gust Speed 25 mph    
Visibility 9.0 miles    
Events Snow    
Averages and records for this station are not official NWS values.
T = Trace of Precipitation, MM = Missing Value Source: Averaged Metar Reports

Daily Weather History Graph

Daily Weather History Graph

Search for Another Location

Airport or City:

Astronomy

Nov. 13, 2019 Rise Set
Actual Time 7:22 AM CST 4:54 PM CST
Civil Twilight 6:50 AM CST 5:26 PM CST
Nautical Twilight 6:14 AM CST 6:03 PM CST
Astronomical Twilight 5:38 AM CST 6:38 PM CST
Moon 5:56 PM CST (11/13) 8:18 AM CST (11/13)
Length of Visible Light 10h 36m
Length of Day
9h 31m
Full, 99% of the Moon is Illuminated
Nov 13
Full
Nov 19
Last Quarter
Nov 26
New
Dec 4
First Quarter
Dec 11
Full

Hourly Weather History & Observations

Time (CST) Temp. Windchill Dew Point Humidity Pressure Visibility Wind Dir Wind Speed Gust Speed Precip Events Conditions
12:15 AM 19.4 °F 7.9 °F 12.2 °F 74% 29.85 in 10.0 mi SSE 10.4 mph - N/A   Clear
12:38 AM 19.4 °F 6.0 °F 12.2 °F 74% 29.84 in 10.0 mi SSE 13.8 mph - N/A   Clear
12:55 AM 19.4 °F 5.5 °F 12.2 °F 74% 29.83 in 10.0 mi SSE 15.0 mph - N/A   Scattered Clouds
1:15 AM 19.4 °F 6.6 °F 14.0 °F 80% 29.82 in 10.0 mi SSE 12.7 mph - N/A   Mostly Cloudy
1:16 AM 19.4 °F 6.0 °F 14.0 °F 80% 29.82 in 10.0 mi SSE 13.8 mph - N/A   Mostly Cloudy
1:35 AM 19.4 °F 5.0 °F 14.0 °F 80% 29.80 in 10.0 mi SSE 16.1 mph - N/A   Mostly Cloudy
1:36 AM 19.4 °F 5.0 °F 14.0 °F 80% 29.81 in 10.0 mi SSE 16.1 mph - N/A   Mostly Cloudy
1:59 AM 19.4 °F 5.5 °F 15.8 °F 86% 29.80 in 7.0 mi SSE 15.0 mph 19.6 mph N/A Snow Light Snow
2:16 AM 19.4 °F 6.0 °F 15.8 °F 86% 29.81 in 10.0 mi South 13.8 mph - N/A   Mostly Cloudy
2:36 AM 19.4 °F 6.6 °F 15.8 °F 86% 29.81 in 7.0 mi SSE 12.7 mph - N/A Snow Light Snow
2:55 AM 19.4 °F 7.2 °F 15.8 °F 86% 29.82 in 7.0 mi South 11.5 mph - N/A Snow Light Snow
2:56 AM 19.4 °F 7.9 °F 15.8 °F 86% 29.82 in 7.0 mi South 10.4 mph - N/A Snow Light Snow
3:15 AM 19.4 °F 8.6 °F 15.8 °F 86% 29.82 in 5.0 mi SSE 9.2 mph - N/A Snow Light Snow
3:37 AM 19.4 °F 14.3 °F 15.8 °F 86% 29.82 in 5.0 mi SSE 3.5 mph - N/A Snow Light Snow
3:56 AM 19.4 °F 11.5 °F 15.8 °F 86% 29.82 in 7.0 mi SSE 5.8 mph - N/A Snow Light Snow
4:15 AM 19.4 °F 9.5 °F 17.6 °F 93% 29.82 in 7.0 mi South 8.1 mph - N/A   Overcast
4:16 AM 19.4 °F 9.5 °F 17.6 °F 93% 29.82 in 7.0 mi South 8.1 mph - N/A   Overcast
4:35 AM 19.4 °F 11.5 °F 17.6 °F 93% 29.83 in 10.0 mi SSE 5.8 mph - N/A   Overcast
4:36 AM 19.4 °F 12.8 °F 17.6 °F 93% 29.83 in 10.0 mi SSE 4.6 mph - N/A   Overcast
4:59 AM 19.4 °F 11.5 °F 17.6 °F 93% 29.83 in 2.5 mi South 5.8 mph - N/A Snow Light Snow
5:17 AM 19.4 °F 12.8 °F 17.6 °F 93% 29.83 in 3.0 mi South 4.6 mph - N/A Snow Light Snow
5:36 AM 19.4 °F 12.8 °F 17.6 °F 93% 29.83 in 1.5 mi South 4.6 mph - N/A Snow Light Snow
5:55 AM 19.4 °F 11.5 °F 17.6 °F 93% 29.83 in 2.5 mi South 5.8 mph - N/A Snow Light Snow
5:56 AM 19.4 °F 11.5 °F 17.6 °F 93% 29.83 in 2.5 mi South 5.8 mph - N/A Snow Light Snow
6:15 AM 19.4 °F 12.8 °F 17.6 °F 93% 29.83 in 2.5 mi SSW 4.6 mph - N/A Snow Light Snow
6:20 AM 19.4 °F 12.8 °F 17.6 °F 93% 29.84 in 2.0 mi SSW 4.6 mph - N/A Snow Light Snow
6:37 AM 19.4 °F 14.3 °F 17.6 °F 93% 29.84 in 3.0 mi South 3.5 mph - N/A Snow Light Snow
6:55 AM 19.4 °F - 17.6 °F 93% 29.85 in 10.0 mi Calm Calm - N/A   Overcast
7:15 AM 19.4 °F - 17.6 °F 93% 29.86 in 10.0 mi Calm Calm - N/A   Overcast
7:16 AM 19.4 °F 14.3 °F 17.6 °F 93% 29.86 in 10.0 mi SW 3.5 mph - N/A   Overcast
7:35 AM 19.4 °F - 17.6 °F 93% 29.86 in 10.0 mi Calm Calm - N/A   Overcast
7:36 AM 21.2 °F - 17.6 °F 86% 29.86 in 10.0 mi Calm Calm - N/A   Overcast
7:58 AM 21.2 °F - 17.6 °F 86% 29.87 in 10.0 mi Calm Calm - N/A   Overcast
8:16 AM 21.2 °F - 17.6 °F 86% 29.87 in 10.0 mi Calm Calm - N/A   Overcast
8:35 AM 21.2 °F 16.4 °F 19.4 °F 93% 29.88 in 10.0 mi WSW 3.5 mph - N/A   Overcast
8:36 AM 21.2 °F 16.4 °F 19.4 °F 93% 29.88 in 10.0 mi WSW 3.5 mph - N/A   Overcast
8:55 AM 21.2 °F 16.4 °F 19.4 °F 93% 29.89 in 10.0 mi West 3.5 mph - N/A   Mostly Cloudy
8:56 AM 21.2 °F 16.4 °F 19.4 °F 93% 29.89 in 10.0 mi WSW 3.5 mph - N/A   Mostly Cloudy
9:18 AM 23.0 °F 17.0 °F 19.4 °F 86% 29.89 in 10.0 mi WNW 4.6 mph - N/A   Overcast
9:37 AM 23.0 °F 15.8 °F 21.2 °F 93% 29.90 in 10.0 mi WNW 5.8 mph - N/A   Overcast
9:56 AM 24.8 °F 16.1 °F 21.2 °F 86% 29.90 in 10.0 mi NW 8.1 mph - N/A   Overcast
10:15 AM 24.8 °F 16.9 °F 21.2 °F 86% 29.91 in 10.0 mi NW 6.9 mph - N/A   Overcast
10:16 AM 24.8 °F 16.9 °F 21.2 °F 86% 29.91 in 10.0 mi NW 6.9 mph - N/A   Overcast
10:35 AM 24.8 °F 15.3 °F 21.2 °F 86% 29.91 in 10.0 mi NNW 9.2 mph - N/A   Overcast
10:58 AM 26.6 °F 15.7 °F 21.2 °F 80% 29.93 in 10.0 mi NNW 12.7 mph - N/A   Overcast
11:15 AM 26.6 °F 14.7 °F 21.2 °F 80% 29.93 in 10.0 mi NNW 15.0 mph - N/A   Overcast
11:35 AM 24.8 °F 12.4 °F 21.2 °F 86% 29.94 in 10.0 mi NNW 15.0 mph 23.0 mph N/A   Overcast
11:55 AM 24.8 °F 11.9 °F 19.4 °F 80% 29.94 in 10.0 mi North 16.1 mph 23.0 mph N/A   Overcast
11:56 AM 24.8 °F 12.4 °F 19.4 °F 80% 29.94 in 10.0 mi North 15.0 mph 23.0 mph N/A   Overcast
12:18 PM 24.8 °F 12.9 °F 17.6 °F 74% 29.94 in 10.0 mi NNW 13.8 mph 20.7 mph N/A   Mostly Cloudy
12:37 PM 26.6 °F 15.2 °F 17.6 °F 69% 29.95 in 10.0 mi NNW 13.8 mph 20.7 mph N/A   Mostly Cloudy
12:55 PM 26.6 °F 14.3 °F 17.6 °F 69% 29.95 in 10.0 mi NNW 16.1 mph 23.0 mph N/A   Scattered Clouds
1:15 PM 26.6 °F 14.3 °F 17.6 °F 69% 29.95 in 10.0 mi NNW 16.1 mph 20.7 mph N/A   Clear
1:16 PM 26.6 °F 14.3 °F 17.6 °F 69% 29.95 in 10.0 mi NNW 16.1 mph 20.7 mph N/A   Clear
1:35 PM 26.6 °F 13.8 °F 17.6 °F 69% 29.96 in 10.0 mi NNW 17.3 mph 24.2 mph N/A   Clear
1:57 PM 26.6 °F 13.4 °F 17.6 °F 69% 29.96 in 10.0 mi NNW 18.4 mph 21.9 mph N/A   Clear
2:15 PM 26.6 °F 13.1 °F 17.6 °F 69% 29.96 in 10.0 mi NW 19.6 mph 25.3 mph N/A   Clear
2:35 PM 24.8 °F 10.7 °F 17.6 °F 74% 29.97 in 10.0 mi NNW 19.6 mph - N/A   Scattered Clouds
2:55 PM 24.8 °F 12.4 °F 15.8 °F 69% 29.97 in 10.0 mi North 15.0 mph 21.9 mph N/A   Mostly Cloudy
2:56 PM 24.8 °F 12.4 °F 15.8 °F 69% 29.97 in 10.0 mi North 15.0 mph 21.9 mph N/A   Mostly Cloudy
3:19 PM 24.8 °F 12.9 °F 17.6 °F 74% 29.99 in 10.0 mi NNW 13.8 mph 23.0 mph N/A   Mostly Cloudy
3:36 PM 24.8 °F 12.4 °F 15.8 °F 69% 30.00 in 10.0 mi North 15.0 mph 20.7 mph N/A   Mostly Cloudy
3:56 PM 23.0 °F 11.1 °F 15.8 °F 74% 30.01 in 10.0 mi North 12.7 mph 23.0 mph N/A   Mostly Cloudy
4:15 PM 21.2 °F 9.5 °F 15.8 °F 80% 30.02 in 10.0 mi North 11.5 mph 24.2 mph N/A   Mostly Cloudy
4:16 PM 21.2 °F 9.5 °F 15.8 °F 80% 30.02 in 10.0 mi North 11.5 mph 24.2 mph N/A   Overcast
4:35 PM 21.2 °F 8.9 °F 14.0 °F 74% 30.03 in 10.0 mi North 12.7 mph 23.0 mph N/A   Overcast
4:39 PM 21.2 °F 10.1 °F 15.8 °F 80% 30.03 in 10.0 mi North 10.4 mph 23.0 mph N/A   Overcast
4:58 PM 21.2 °F 11.7 °F 14.0 °F 74% 30.04 in 10.0 mi North 8.1 mph 23.0 mph N/A   Overcast
5:15 PM 21.2 °F 11.7 °F 14.0 °F 74% 30.04 in 10.0 mi North 8.1 mph 18.4 mph N/A   Overcast
5:35 PM 21.2 °F 10.1 °F 12.2 °F 68% 30.05 in 10.0 mi North 10.4 mph 18.4 mph N/A   Overcast
5:36 PM 21.2 °F 10.9 °F 12.2 °F 68% 30.05 in 10.0 mi North 9.2 mph 18.4 mph N/A   Overcast
5:55 PM 19.4 °F 7.2 °F 12.2 °F 74% 30.06 in 10.0 mi North 11.5 mph 16.1 mph N/A   Overcast
6:19 PM 19.4 °F 7.9 °F 12.2 °F 74% 30.07 in 10.0 mi North 10.4 mph 16.1 mph N/A   Overcast
6:37 PM 19.4 °F 9.5 °F 12.2 °F 74% 30.08 in 10.0 mi North 8.1 mph 16.1 mph N/A   Overcast
6:56 PM 19.4 °F 8.6 °F 12.2 °F 74% 30.09 in 10.0 mi North 9.2 mph - N/A   Overcast
7:15 PM 19.4 °F 10.4 °F 12.2 °F 74% 30.10 in 10.0 mi North 6.9 mph - N/A   Overcast
7:16 PM 19.4 °F 10.4 °F 12.2 °F 74% 30.10 in 10.0 mi North 6.9 mph - N/A   Overcast
7:35 PM 19.4 °F 9.5 °F 10.4 °F 68% 30.10 in 10.0 mi North 8.1 mph - N/A   Overcast
7:39 PM 19.4 °F 10.4 °F 12.2 °F 74% 30.10 in 10.0 mi North 6.9 mph - N/A   Overcast
7:58 PM 19.4 °F 9.5 °F 10.4 °F 68% 30.11 in 10.0 mi North 8.1 mph - N/A   Overcast
8:15 PM 19.4 °F 7.9 °F 10.4 °F 68% 30.12 in 10.0 mi North 10.4 mph 18.4 mph N/A   Overcast
8:36 PM 19.4 °F 7.2 °F 12.2 °F 74% 30.13 in 10.0 mi North 11.5 mph 18.4 mph N/A Snow Light Snow
8:56 PM 19.4 °F 7.9 °F 12.2 °F 74% 30.13 in 7.0 mi North 10.4 mph 18.4 mph N/A Snow Light Snow
9:19 PM 17.6 °F 8.2 °F 12.2 °F 79% 30.14 in 7.0 mi North 6.9 mph - N/A Snow Light Snow
9:36 PM 17.6 °F 7.3 °F 10.4 °F 73% 30.15 in 10.0 mi North 8.1 mph 17.3 mph N/A   Overcast
9:55 PM 17.6 °F 5.7 °F 10.4 °F 73% 30.15 in 10.0 mi North 10.4 mph - N/A   Overcast
9:56 PM 17.6 °F 5.7 °F 10.4 °F 73% 30.15 in 10.0 mi North 10.4 mph - N/A   Overcast
10:15 PM 17.6 °F 6.4 °F 10.4 °F 73% 30.16 in 10.0 mi North 9.2 mph 17.3 mph N/A   Overcast
10:16 PM 17.6 °F 6.4 °F 10.4 °F 73% 30.16 in 10.0 mi North 9.2 mph 17.3 mph N/A   Overcast
10:38 PM 17.6 °F 6.4 °F 10.4 °F 73% 30.16 in 10.0 mi North 9.2 mph 18.4 mph N/A   Overcast
11:15 PM 17.6 °F 6.4 °F 10.4 °F 73% 30.17 in 10.0 mi North 9.2 mph - N/A   Overcast
11:16 PM 17.6 °F 6.4 °F 10.4 °F 73% 30.17 in 10.0 mi North 9.2 mph - N/A   Overcast
11:35 PM 17.6 °F 9.3 °F 10.4 °F 73% 30.17 in 10.0 mi North 5.8 mph - N/A   Overcast
11:36 PM 17.6 °F 8.2 °F 10.4 °F 73% 30.17 in 10.0 mi North 6.9 mph - N/A   Overcast
11:58 PM 15.8 °F 6.1 °F 10.4 °F 79% 30.17 in 10.0 mi NNW 6.9 mph - N/A   Overcast